OBJECT D, 63431

Orbit data source: Space-Track

You're viewing an Uncataloged Satellite

Recently launched and/or uncataloged satellites may have evolving metadata. Metadata may include but not limited to: Owner, Maufacturer, Bus, Motor, and Mission.

OBJECT D, 63431 is a satellite owned by Zhongguo Xingwang (CN) in LEO that was launched on Tue, 01 Apr 2025 UTC via a CHANG ZHENG 2D launch vehicle from the Jiuquan Satellite Launch Center, China (JSC). Unknown objects in Earth's orbit typically refer to objects detected orbiting the Earth but have not yet been identified or cataloged. These objects could be anything from previously untracked satellites, spent rocket stages, debris from satellite collisions, or even natural meteoroids temporarily captured by Earth's gravity.

Loading next visibility...
Identifier
63431, 2025-067D
Orbit
LEO
Last TLE update
7 hours ago
Origin
Manufacturer
Changguang WJ
Mission
Operational Civil Communications
Bus & Motor
Unknown
Mass
~300 kg wet, ~300 kg dry
Launch date (UTC)
2025-04-01 (3 months ago)
Launch vehicle
CHANG ZHENG 2D
Launch site
Jiuquan Satellite Launch Center, China (JSC)
Object type
Unknown
Shape & HBR
Box + 2 Pan, 2.5 m
Radar Cross Section
2.320 m², Large (>1 m²)

Expand to show TLE details & history

TLE from 7 hours ago
0 OBJECT D
1 63431U 25067D   25190.17939456  .00007544  00000-0  21216-3 0  9993
2 63431  54.9952 124.0439 0009252 154.5903 205.5581 15.37519597 15241
Epoch: 2025-07-09T04:18Z
TLE epoch observation values (Epoch: 2025-07-09T04:18:19.689Z)
Latitude
-0.00007°
Longitude
132.09808°
Altitude
460.249 km
Speed
7.635 km/s
True Right ascension
08h 16m 10s
True Declination
0° 00' 00"
Sunlit
Object was in daylight at epoch
Visualization orbit readout
Latitude
13.83137°
Longitude
-59.07593°
Altitude
447.523 km
Speed
7.649 km/s
Apparent Right ascension
16h 28m 26s
Apparent Declination
-22° 47' 47"
Sunlit
Object is in full shadow
Visualization observer readout
Local Sidereal Time
23:25:15
Azimuth
260.346° W
Elevation
-24.968°
Doppler factor
1
Orbital elements
Apogee altitude
459.73 km
Perigee altitude
447.089 km
Semi-major axis
6,831.547 km
Eccentricity
0.00093
Inclination
54.9952°
RAAN
124.0439°
Arg. of periapsis
154.5903°
True anomaly
Unknown
Mean anomaly
205.5581°
Eccentric anomaly
Unknown
Mean motion
3.84383 °/min
Orbital period
93.66 mins
BSTAR
0.00021216
Loading maneuver chart data...
Loading SW <> Apogee altitude chart data...
Loading historical data...
Loading historical data...
Loading historical data...
Loading historical data...
Loading historical data...
Loading historical data...
Loading historical data...
Other satellites on launch #67 in the year 2025 (2025-04-01 UTC)

OBJECT D Visibility forecast

Observer location: undefined°, undefined°

Span
Click to sort rows by Start time (UTC) header in descending order
Start Az.
Max El. time (UTC)
Max El. Az.
Max El.
End time (UTC)
End Az.
6 mins2025-07-09 21:37:08.377Z199.418° SSW2025-07-09 21:40:08.377Z138.171° SSE31.755°2025-07-09 21:43:08.377Z64.484° ENE
4 mins2025-07-09 23:16:08.377Z290.438° WNW2025-07-09 23:17:08.377Z313.626° NW21.897°2025-07-09 23:20:08.377Z20.094° NNE
4 mins2025-07-10 05:49:08.377Z281.616° WNW2025-07-10 05:50:08.377Z250.361° W32.765°2025-07-10 05:53:08.377Z161.138° S
|